Regional Weather Roundup
Issued by NWS

Home | Current Version | Previous Version | Text Only | Print | Product List | Glossary Off
Versions: 1 2 3 4 5 6 7 8 9 10 11 12 13 14 15 16 17 18 19 20 21 22 23 24 25 26 27 28 29 30 31 32 33 34 35 36 37 38 39 40 41 42 43 44 45 46 47 48 49 50

000
ASUS43 KIND 282359
RWRIN

WEATHER ROUNDUP FOR INDIANA
NATIONAL WEATHER SERVICE INDIANAPOLIS IN
800 PM EDT WED JUN 28 2017

NOTE: "FAIR" INDICATES FEW OR NO CLOUDS BELOW 12,000 FEET WITH NO
SIGNIFICANT WEATHER AND/OR OBSTRUCTIONS TO VISIBILITY.

* - STATION DOES NOT REPORT WEATHER SUCH AS PRECIPITATION OR FOG.

+ - STATION NOT QUALITY CONTROLLED BY THE NATIONAL WEATHER SERVICE.
    USE DATA WITH CAUTION...ESPECIALLY DEWPOINT AND RELATIVE
    HUMIDITY OBSERVATIONS.

INZ001>003-010>013-019-020-290100-
NORTHWEST INDIANA

CITY           SKY/WX    TMP DP  RH WIND       PRES   REMARKS
GARY /AIRPORT/ PTSUNNY   81  55  41 S16G30    29.80F
KNOX *+        CLOUDY    77  45  31 S14G22    29.87F
MICHIGAN CITY+ MOSUNNY   77  55  47 S20G29    29.80F
MONTICELLO +   PTSUNNY   79  56  46 S10G16    29.90F
6HR MIN TEMP:  76; 6HR MAX TEMP:  80;

RENSSELAER +   PTSUNNY   79  50  36 S20G30    29.87F

$$

LMZ046-743>745-290100-
SOUTHERN LAKE MICHIGAN

STATION/POSITION TIME  TEMP    WIND        PRES    WAVE
                       AIR SEA DIR/SP/G            HT
                 (UTC) (F)     (DEG/KT/KT) (MB)    (FT)
BURNS HARBOR     2340   79     180/ 17/ 27 1008.8F
MICHIGAN CITY    2330   78     160/ 22/ 27   N/A
5NW MICH CITY    2350   75 66  180/ 23/ 31   N/A     3

$$

INZ004-005-014>016-021>024-290100-
NORTH CENTRAL INDIANA

CITY           SKY/WX    TMP DP  RH WIND       PRES   REMARKS
ELKHART        CLOUDY    77  54  44 S10G24    29.89F
GOSHEN         CLOUDY    77  52  41 S14G23    29.90F
6HR MIN TEMP:  75; 6HR MAX TEMP:  78;

SOUTH BEND     CLOUDY    76  56  49 S21G28    29.85F
6HR MIN TEMP:  73; 6HR MAX TEMP:  78;


$$

INZ006>009-017-018-025>027-290100-
NORTHEAST INDIANA

CITY           SKY/WX    TMP DP  RH WIND       PRES   REMARKS
ANGOLA *+      MOSUNNY   75  70  83 S8        29.94S
FORT WAYNE     PTSUNNY   77  52  41 S12       29.97S
6HR MIN TEMP:  76; 6HR MAX TEMP:  79;

KENDALLVILLE + CLOUDY    76  54  46 S12       29.94F

$$

INZ028-029-035-036-043>045-051>053-290100-
WEST CENTRAL INDIANA

CITY           SKY/WX    TMP DP  RH WIND       PRES   REMARKS
CRAWFORDSVL +  MOSUNNY   76  58  54 S9G17     29.94F
6HR MIN TEMP:  75; 6HR MAX TEMP:  79;

LAFAYETTE      CLOUDY    78  58  49 S10G22    29.90F
6HR MIN TEMP:  76; 6HR MAX TEMP:  80;

TERRE HAUTE    CLOUDY    80  58  46 S15G29    29.94F
6HR MIN TEMP:  79; 6HR MAX TEMP:  83;


$$

INZ030>032-037>040-046>048-054>057-064-065-290100-
CENTRAL INDIANA

CITY           SKY/WX    TMP DP  RH WIND       PRES   REMARKS
COLUMBUS       PTSUNNY   77  46  33 S14       30.00S
GREENWOOD *+   CLOUDY    78  52  40 S12       30.00S
INDIANAPOLIS   CLOUDY    78  56  46 S14       29.98S
6HR MIN TEMP:  76; 6HR MAX TEMP:  80;

-EAGLE CREEK   CLOUDY    79  55  43 S12       29.97S
6HR MIN TEMP:  77; 6HR MAX TEMP:  81;

KOKOMO +       CLOUDY    78  56  46 S10       29.96F
6HR MIN TEMP:  77; 6HR MAX TEMP:  80;

MT COMFORT *+  CLOUDY    77  52  41 S12G17    30.00S
SHELBYVILLE    SUNNY     78  52  40 S10       29.99S
6HR MIN TEMP:  78; 6HR MAX TEMP:  82;


$$

INZ033-034-041-042-049-050-058-059-290100-
EAST CENTRAL INDIANA

CITY           SKY/WX    TMP DP  RH WIND       PRES   REMARKS
MUNCIE         CLOUDY    78  51  38 S8        29.98S
6HR MIN TEMP:  78; 6HR MAX TEMP:  81;

RICHMOND +     SUNNY     72  54  53 S12       30.03S

$$

INZ060-061-067>069-081>083-085>088-290100-
SOUTHWEST INDIANA

CITY           SKY/WX    TMP DP  RH WIND       PRES   REMARKS
EVANSVILLE     PTSUNNY   81  59  47 S9        29.98S
6HR MIN TEMP:  81; 6HR MAX TEMP:  85;

HUNTINGBURG *+ CLOUDY    79  62  56 SE7       30.00S
6HR MIN TEMP:  79; 6HR MAX TEMP:  83;


$$

INZ062-063-066-070>080-084-089>092-290100-
SOUTH CENTRAL AND SOUTHEAST INDIANA

CITY           SKY/WX    TMP DP  RH WIND       PRES   REMARKS
BLOOMINGTON    SUNNY     78  57  48 S12       29.99S
6HR MIN TEMP:  78; 6HR MAX TEMP:  83;

MADISON *+     CLOUDY    77  52  41 S6        30.04F
SEYMOUR +      PTSUNNY   81  57  44 S8        30.00F

$$




USA.gov is the U.S. government's official web portal to all federal, state and local government web resources and services.